Theta_e
310 310 317 322 324 325 325 326 326 327 327 328 329 330 332 334 336 339 337 336 336 337 340 345 348 349 349 349 347 348 348 347 345 345 345 344 347 347 346 345 344 341 345
307 307 314 320 322 323 323 324 324 324 324 325 326 327 328 329 331 333 335 338 338 335 334 336 339 346 347 348 348 346 348 348 346 342 344 344 344 347 347 344 344 342 343
305 306 306 317 319 320 321 321 322 322 322 323 324 324 325 326 327 329 330 332 333 336 334 333 334 336 341 346 347 347 348 348 347 346 342 341 342 345 346 346 345 346 346
305 305 306 316 317 319 319 320 320 320 320 321 322 323 323 324 324 325 326 328 329 331 333 333 331 332 334 337 343 346 346 347 348 348 344 340 340 346 346 346 346 347 345
304 305 305 314 315 316 317 317 318 318 319 319 320 321 321 322 322 322 323 323 324 325 327 330 332 330 330 332 333 339 344 345 346 346 344 343 342 343 347 347 346 347 347
303 304 306 312 313 314 315 315 316 317 317 318 319 321 320 321 321 321 321 321 320 321 322 326 329 332 330 330 331 332 335 341 342 345 344 344 343 346 345 346 347 348 349
302 303 303 310 311 312 313 314 315 316 317 317 318 319 319 319 320 320 320 320 318 318 318 322 325 329 332 330 329 330 330 331 338 342 345 345 345 346 346 347 347 348 348
302 303 303 307 309 310 311 312 313 315 315 315 316 317 317 318 318 317 317 318 317 316 316 318 321 323 327 330 332 329 329 329 331 338 339 343 345 344 346 346 347 348 347
303 303 304 304 306 309 309 311 311 314 314 314 314 314 313 313 314 314 314 314 314 314 314 316 318 320 322 325 328 328 324 320 325 331 332 331 335 336 343 346 346 346 347
302 303 303 305 305 305 306 310 311 310 310 310 310 310 310 310 310 309 309 310 311 312 314 316 317 316 318 322 324 324 322 318 318 318 321 332 322 328 339 342 345 346 346
301 302 303 304 305 305 305 306 308 308 308 308 307 308 307 304 304 305 307 309 311 313 315 315 315 314 315 316 319 318 318 320 316 315 316 314 323 328 331 336 339 344 346
299 300 302 303 304 305 304 305 305 305 305 305 305 305 304 304 304 304 306 308 309 310 311 312 313 312 311 309 309 313 316 317 316 314 314 312 318 323 330 330 335 340 344
299 300 302 302 303 304 303 304 303 303 303 303 303 302 303 304 304 304 304 304 305 306 305 305 305 305 305 305 306 308 312 315 315 314 315 313 315 319 322 329 329 334 339
298 300 302 303 303 303 303 301 300 300 301 300 301 301 300 301 301 302 302 303 304 304 304 304 304 305 305 304 304 304 307 311 312 312 313 313 314 315 319 322 325 327 329
297 299 301 302 301 299 299 299 299 299 299 300 301 301 301 300 299 299 301 302 303 304 304 303 304 304 304 304 303 303 305 307 310 311 312 314 314 314 314 317 319 321 323
298 299 300 300 300 300 298 298 298 299 299 300 301 301 301 301 300 299 298 299 301 303 304 303 303 303 303 304 303 303 304 306 308 310 311 313 314 313 313 314 314 316 318
298 299 299 298 299 298 297 298 298 299 300 301 301 301 301 301 300 300 300 299 299 299 301 302 303 303 303 303 303 303 303 304 307 309 310 311 313 313 312 312 311 312 313
298 298 298 298 297 297 297 298 297 300 299 300 301 302 301 301 301 300 300 299 300 299 299 299 300 302 302 302 302 302 302 303 305 308 309 310 311 311 312 312 311 311 311
298 297 297 297 296 296 297 298 298 299 298 299 300 301 300 301 301 300 300 300 300 299 298 298 297 299 300 301 301 302 302 302 304 305 308 310 311 311 310 311 311 310 309
297 297 297 296 296 297 297 298 298 297 298 299 299 300 300 299 300 300 300 300 300 299 298 298 297 297 297 300 300 301 302 302 303 305 306 308 310 310 310 310 310 309 309
296 296 296 295 296 296 296 295 295 294 297 297 299 299 299 300 299 299 299 298 299 298 298 298 298 296 295 297 297 299 300 302 302 302 305 307 308 309 309 309 309 308 308
295 295 295 295 296 295 295 295 295 295 296 297 298 297 298 299 299 299 298 297 297 298 298 298 297 296 295 296 293 295 294 298 300 301 302 303 306 307 307 307 307 306 307
294 294 295 295 295 294 294 295 295 295 296 295 296 295 298 298 298 298 299 299 299 298 297 297 297 296 294 296 295 294 291 292 297 301 300 301 304 305 307 307 305 306 306
294 295 295 295 295 295 295 294 292 292 291 293 294 295 297 296 296 297 297 298 298 299 298 297 298 297 295 293 295 296 295 297 294 294 299 300 302 304 305 305 305 305 305
294 295 295 295 295 296 294 294 293 291 292 293 293 294 295 295 296 296 296 297 298 299 299 297 297 298 296 295 294 293 294 295 296 293 292 296 300 303 305 304 304 304 304
294 294 295 295 294 295 294 294 293 291 292 290 291 292 293 294 295 295 296 297 298 298 298 298 298 297 297 296 295 295 293 293 293 293 292 295 296 300 303 304 304 304 304
Wind_Speed
11 11 19 21 22 22 23 23 23 23 22 21 20 20 20 20 20 21 18 17 16 16 16 15 13 11 10 9 8 6 6 5 4 4 3 4 5 5 5 4 5 8 5
10 13 19 22 22 22 22 23 22 22 21 21 20 19 18 18 19 18 19 19 18 16 14 16 15 14 10 9 10 9 7 6 6 4 4 5 5 7 7 6 5 2 5
12 14 15 21 22 22 22 22 22 22 22 21 21 19 19 18 18 18 18 17 17 19 16 15 14 14 14 11 9 10 10 9 9 8 6 9 8 9 9 8 7 4 6
14 14 15 23 23 24 23 23 22 22 22 22 22 20 20 19 17 18 17 17 17 18 18 17 14 13 13 13 12 10 10 12 12 12 10 10 8 12 10 10 10 10 8
14 14 14 22 22 23 23 23 23 23 22 22 21 20 19 20 18 18 18 17 17 17 17 18 16 14 12 11 11 11 10 9 12 11 12 10 7 9 11 11 12 11 11
15 15 16 21 22 23 23 23 24 24 24 23 22 22 21 21 20 19 18 16 17 18 18 17 16 15 13 12 10 10 9 10 10 13 12 9 9 7 11 12 11 11 14
16 15 16 20 20 22 23 24 25 25 25 22 23 23 23 22 22 21 20 20 16 18 18 19 16 16 14 14 12 11 10 8 9 8 11 11 12 13 13 14 13 13 15
15 15 15 18 20 22 23 24 24 23 22 22 24 23 22 22 21 21 20 20 19 19 18 19 17 17 15 15 15 13 9 7 8 7 7 8 10 6 12 15 15 15 15
15 15 16 16 19 22 22 23 23 25 25 25 24 23 22 22 20 20 19 21 22 21 21 19 16 18 16 16 14 15 6 3 8 6 7 5 2 7 13 16 16 16 16
16 16 16 16 17 17 17 21 23 21 22 23 22 22 21 21 21 18 18 20 20 23 22 20 19 15 17 17 16 14 9 5 10 6 7 6 5 8 11 13 15 16 17
15 16 15 16 16 16 16 15 19 19 20 20 18 20 18 12 14 16 17 20 20 20 21 20 20 16 18 17 17 14 12 8 6 6 4 3 9 9 8 12 13 16 17
19 18 17 16 16 16 13 15 14 14 13 14 14 15 12 14 13 14 18 18 19 20 19 19 18 18 17 11 8 11 8 8 8 6 5 2 7 9 10 8 9 11 15
18 15 18 16 17 16 14 11 9 9 10 11 15 14 13 12 9 9 8 8 8 11 10 12 11 10 11 9 9 9 10 9 6 7 6 5 6 7 7 10 8 5 7
18 18 18 17 15 16 12 11 11 10 9 9 11 14 10 8 11 10 8 9 9 8 10 10 8 10 12 12 13 12 13 11 7 6 6 6 6 5 5 5 5 2 5
18 18 18 18 15 15 13 11 11 12 10 12 10 11 9 10 9 10 11 10 9 9 9 9 9 9 10 12 12 12 12 14 13 7 5 10 8 6 3 3 3 4 5
18 18 18 18 16 18 13 16 12 11 12 11 11 11 14 10 9 9 9 10 12 10 10 9 9 9 9 10 12 12 12 12 13 12 8 8 11 9 6 4 1 3 4
17 19 17 18 17 18 18 14 12 12 13 12 11 12 14 13 12 12 8 9 8 9 13 10 10 10 9 10 12 11 11 12 11 13 11 9 9 10 8 6 4 3 2
19 17 19 16 18 18 16 13 11 12 11 11 11 12 13 14 13 12 9 9 9 8 7 9 10 9 9 9 9 9 10 11 12 13 11 10 9 7 10 8 6 5 3
17 18 18 19 18 18 16 13 13 14 10 11 12 11 15 14 13 11 9 9 10 7 8 7 8 10 9 10 10 10 10 10 11 10 13 12 11 8 7 10 6 5 4
16 17 17 16 18 18 13 13 12 11 9 9 10 10 15 12 13 11 9 10 9 7 7 7 9 7 9 9 10 10 10 10 10 10 11 12 12 11 10 9 7 7 7
17 17 18 17 18 15 13 14 13 13 11 11 10 14 16 11 12 11 8 9 8 8 8 9 8 8 7 8 9 10 11 12 12 11 11 11 13 11 11 9 6 6 5
18 18 17 18 18 15 13 12 11 12 12 11 9 13 15 14 13 12 10 9 9 7 9 8 9 7 7 6 6 8 10 11 12 13 12 12 15 12 12 12 10 9 7
18 18 18 19 20 16 17 11 11 11 11 10 12 10 10 16 13 13 15 10 10 7 6 8 7 9 7 6 8 7 5 8 8 9 14 13 14 12 12 12 11 10 9
18 16 18 18 17 15 18 13 17 11 12 12 10 10 9 13 14 13 12 13 11 8 8 7 7 8 7 6 6 8 12 10 4 6 7 11 13 14 14 11 10 10 9
16 16 16 18 17 17 17 16 12 14 11 10 10 15 12 12 12 13 13 14 12 7 9 9 9 8 6 6 7 6 8 9 11 9 7 6 11 12 12 12 10 9 9
16 16 16 18 18 18 17 17 17 16 17 13 14 11 10 9 10 12 14 11 12 9 8 7 5 6 6 8 7 7 7 6 8 8 9 10 9 10 11 11 10 8 7
Wind_Direction
351 357 359 355 358 356 356 357 354 354 352 349 349 350 346 350 349 349 349 349 354 355 352 353 339 312 299 287 280 281 267 241 236 239 244 245 235 216 195 194 209 222 149
350 356 358 353 353 351 350 350 347 346 344 343 343 342 341 343 340 339 342 346 345 343 344 348 347 346 320 299 280 268 258 239 233 231 239 231 234 229 209 190 228 267 190
354 355 352 351 346 345 345 343 341 339 337 335 332 333 333 334 333 332 330 332 335 335 333 334 339 341 341 327 302 279 264 242 239 236 233 252 227 199 224 215 217 223 214
354 351 349 347 346 344 342 340 337 334 331 327 324 323 324 323 324 322 321 323 329 328 327 323 323 328 331 337 330 311 278 265 246 225 229 235 240 171 222 218 221 226 229
349 349 352 345 344 341 340 336 334 331 327 324 318 312 314 313 313 315 314 314 317 317 316 316 316 313 315 318 323 318 310 301 275 252 241 242 238 189 214 226 228 231 221
347 348 344 343 341 339 337 334 329 325 321 317 317 317 313 308 303 303 304 306 312 314 312 308 309 310 300 303 303 306 308 304 312 249 238 232 229 239 207 235 244 263 213
345 343 341 341 335 335 332 330 328 323 318 320 321 312 305 303 302 303 301 298 301 305 311 304 301 305 319 303 293 296 291 288 274 291 265 248 227 221 234 238 242 243 229
341 341 339 335 336 333 331 331 328 328 329 323 318 311 313 308 303 301 301 305 301 298 303 296 299 296 299 306 314 288 308 325 260 248 299 284 258 270 245 246 247 249 244
343 342 340 340 337 335 334 331 329 329 323 319 314 313 312 303 301 297 299 294 293 290 291 287 288 297 293 290 302 314 276 312 289 277 250 269 47 289 265 245 248 253 252
344 344 341 342 342 338 334 334 338 331 328 327 322 316 308 302 291 287 291 281 288 282 281 281 282 285 290 294 295 305 295 264 255 261 260 248 297 277 276 259 251 251 254
343 343 340 342 342 339 334 340 335 335 332 330 327 321 313 303 297 295 293 290 289 287 281 279 275 283 287 284 276 277 292 260 249 247 258 344 271 277 283 267 273 259 251
341 340 341 336 340 337 333 337 333 333 334 330 330 327 323 315 305 306 288 286 285 281 283 282 279 277 278 268 269 248 240 257 251 246 250 272 279 266 267 288 285 295 270
338 336 337 335 335 337 339 337 350 343 327 320 327 331 324 318 310 305 299 297 291 281 273 269 268 258 261 259 268 267 261 256 243 255 234 232 266 281 269 261 294 315 324
336 340 338 340 335 339 341 343 326 330 323 322 327 324 318 321 317 309 304 297 293 286 285 276 266 267 266 259 255 260 260 254 244 236 261 214 241 255 282 282 273 343 19
340 341 344 342 348 340 335 333 328 326 319 318 317 318 320 314 310 311 310 303 290 287 280 276 270 267 261 261 258 251 255 256 247 245 233 207 215 216 223 283 345 353 14
342 341 344 344 343 339 345 335 327 319 316 312 315 316 317 314 308 305 305 304 301 293 286 280 279 275 271 262 258 254 257 260 257 241 237 208 214 204 207 203 282 346 349
342 342 347 344 348 342 339 333 326 318 320 315 312 313 315 315 309 305 296 287 289 296 297 278 270 264 263 262 259 255 254 254 255 247 236 238 197 207 213 209 212 254 299
346 345 345 352 340 346 332 330 322 324 322 314 316 311 313 311 307 298 293 290 282 277 286 293 285 275 266 263 260 254 253 249 250 247 237 234 234 237 188 212 202 219 232
348 344 348 346 345 340 334 329 329 331 329 324 320 321 322 309 299 296 294 284 287 275 268 276 277 284 274 261 258 256 257 252 249 250 237 230 239 240 239 173 210 200 221
351 349 348 350 344 343 337 338 335 335 329 322 320 318 321 316 309 296 291 288 279 272 260 257 266 276 282 281 270 262 253 246 244 245 246 234 229 228 230 236 200 218 222
353 353 352 349 351 349 343 341 336 335 333 328 328 328 328 312 315 311 300 295 294 270 263 253 256 261 268 276 279 259 251 252 244 238 234 241 233 226 224 220 230 247 228
353 356 351 352 351 354 341 336 329 330 329 322 334 325 322 329 323 316 312 298 293 284 273 262 244 242 250 258 269 273 253 229 230 237 232 234 234 226 227 225 229 234 245
358 355 355 354 353 345 341 327 334 328 324 332 331 321 324 330 324 317 314 303 293 283 275 269 256 228 235 244 242 258 250 249 251 218 228 229 230 227 228 228 232 232 244
357 352 354 356 350 343 345 338 340 331 324 328 323 316 320 329 326 323 317 309 299 294 281 274 259 231 212 231 246 247 257 275 286 241 211 230 227 226 220 228 227 228 237
356 355 351 350 351 352 349 344 342 340 330 335 330 332 335 327 326 323 325 317 303 294 291 293 253 229 203 217 233 246 253 250 261 266 281 214 229 221 219 222 220 231 226
360 356 350 352 356 346 347 347 344 339 337 336 342 339 335 329 330 328 326 320 321 307 305 306 272 226 208 226 225 242 240 241 233 239 246 267 242 218 220 221 226 220 216